Time,TemperatureF,DewpointF,PressureIn,WindDirection,WindDirectionDegrees,WindSpeedMPH,WindSpeedGustMPH,Humidity,HourlyPrecipIn,Conditions,Clouds,dailyrainin,SoftwareType,DateUTC
2013-03-08 00:00:00,32.9,25.5,29.97,NNE,20,5.0,7.0,74,0.00,,---,0.00,VWS V14.01,2013-03-08 05:00:00,
2013-03-08 00:02:00,32.9,25.5,29.97,ENE,59,6.0,6.0,74,0.00,,---,0.00,VWS V14.01,2013-03-08 05:02:00,
2013-03-08 00:07:00,32.9,25.5,29.97,NE,52,2.0,7.0,74,0.00,,---,0.00,VWS V14.01,2013-03-08 05:07:00,
2013-03-08 00:12:00,32.9,25.5,29.97,NNE,27,2.0,7.0,74,0.00,,---,0.00,VWS V14.01,2013-03-08 05:12:00,
2013-03-08 00:17:00,32.8,25.4,29.98,SE,143,0.0,7.0,74,0.00,,---,0.00,VWS V14.01,2013-03-08 05:17:00,
2013-03-08 00:22:00,32.8,25.4,29.98,NE,41,0.0,7.0,74,0.00,,---,0.00,VWS V14.01,2013-03-08 05:22:00,
2013-03-08 00:27:00,32.7,25.3,29.98,NNE,21,6.0,7.0,74,0.00,,---,0.00,VWS V14.01,2013-03-08 05:27:00,
2013-03-08 00:33:00,32.7,25.3,29.98,North,6,0.0,7.0,74,0.00,,---,0.00,VWS V14.01,2013-03-08 05:33:00,
2013-03-08 00:38:00,32.7,25.3,29.98,NE,42,0.0,7.0,74,0.00,,---,0.00,VWS V14.01,2013-03-08 05:38:00,
2013-03-08 00:43:00,32.5,25.1,29.98,ENE,78,1.0,7.0,74,0.00,,---,0.00,VWS V14.01,2013-03-08 05:43:00,
2013-03-08 00:48:00,32.5,25.5,29.98,East,79,0.0,7.0,75,0.00,,---,0.00,VWS V14.01,2013-03-08 05:48:00,
2013-03-08 00:53:00,32.5,25.5,29.98,ENE,58,0.0,7.0,75,0.00,,---,0.00,VWS V14.01,2013-03-08 05:53:00,
2013-03-08 00:58:00,32.5,25.5,29.98,East,85,0.0,7.0,75,0.00,,---,0.00,VWS V14.01,2013-03-08 05:58:00,
2013-03-08 01:00:00,32.1,25.4,29.97,NNE,32,3.0,11.0,76,0.00,,---,-99.99,VWS V14.01,2013-03-08 06:00:00,
2013-03-08 01:03:00,32.5,25.5,29.98,West,270,0.0,1.0,75,0.00,,---,0.00,VWS V14.01,2013-03-08 06:03:00,
2013-03-08 01:08:00,32.5,25.5,29.98,North,0,0.0,1.0,75,0.00,,---,0.00,VWS V14.01,2013-03-08 06:08:00,
2013-03-08 01:13:00,32.4,25.4,29.98,NE,49,0.0,3.0,75,0.00,,---,0.00,VWS V14.01,2013-03-08 06:13:00,
2013-03-08 01:18:00,32.2,25.2,29.98,NNE,32,1.0,3.0,75,0.00,,---,0.00,VWS V14.01,2013-03-08 06:18:00,
2013-03-08 01:23:00,32.2,25.2,29.98,NE,34,1.0,3.0,75,0.00,,---,0.00,VWS V14.01,2013-03-08 06:23:00,
2013-03-08 01:28:00,32.2,25.2,29.98,ENE,66,2.0,3.0,75,0.00,,---,0.00,VWS V14.01,2013-03-08 06:28:00,
2013-03-08 01:34:00,32.2,25.2,29.97,ENE,72,4.0,4.0,75,0.00,,---,0.00,VWS V14.01,2013-03-08 06:34:00,
2013-03-08 01:39:00,32.1,25.1,29.97,NNW,337,2.0,4.0,75,0.00,,---,0.00,VWS V14.01,2013-03-08 06:39:00,
2013-03-08 01:44:00,32.1,25.1,29.97,North,359,0.0,7.0,75,0.00,,---,0.00,VWS V14.01,2013-03-08 06:44:00,
2013-03-08 01:49:00,32.1,25.1,29.97,NE,41,0.0,7.0,75,0.00,,---,0.00,VWS V14.01,2013-03-08 06:49:00,
2013-03-08 01:54:00,32.1,25.1,29.97,ESE,104,11.0,11.0,75,0.00,,---,0.00,VWS V14.01,2013-03-08 06:54:00,
2013-03-08 01:59:00,32.1,25.4,29.97,West,265,0.0,11.0,76,0.00,,---,0.00,VWS V14.01,2013-03-08 06:59:00,
2013-03-08 02:00:00,31.8,24.8,29.95,NNE,20,0.0,7.0,75,0.00,,---,-99.99,VWS V14.01,2013-03-08 07:00:00,
2013-03-08 02:04:00,32.1,25.4,29.97,NNE,21,0.0,3.0,76,0.00,,---,0.00,VWS V14.01,2013-03-08 07:04:00,
2013-03-08 02:09:00,32.1,25.1,29.97,North,359,0.0,5.0,75,0.00,,---,0.00,VWS V14.01,2013-03-08 07:09:00,
2013-03-08 02:14:00,32.1,25.1,29.97,North,359,0.0,5.0,75,0.00,,---,0.00,VWS V14.01,2013-03-08 07:14:00,
2013-03-08 02:19:00,32.1,25.1,29.97,NNE,21,2.0,5.0,75,0.00,,---,0.00,VWS V14.01,2013-03-08 07:19:00,
2013-03-08 02:24:00,32.1,25.1,29.97,NNE,21,2.0,5.0,75,0.00,,---,0.00,VWS V14.01,2013-03-08 07:24:00,
2013-03-08 02:29:00,31.9,24.9,29.97,ENE,78,0.0,5.0,75,0.00,,---,0.00,VWS V14.01,2013-03-08 07:29:00,
2013-03-08 02:34:00,31.9,24.9,29.96,ENE,66,3.0,5.0,75,0.00,,---,0.00,VWS V14.01,2013-03-08 07:34:00,
2013-03-08 02:39:00,31.9,24.9,29.96,ENE,62,0.0,5.0,75,0.00,,---,0.00,VWS V14.01,2013-03-08 07:39:00,
2013-03-08 02:44:00,31.9,24.9,29.95,NE,40,6.0,6.0,75,0.00,,---,0.00,VWS V14.01,2013-03-08 07:44:00,
2013-03-08 02:50:00,31.9,24.9,29.95,North,350,1.0,6.0,75,0.00,,---,0.00,VWS V14.01,2013-03-08 07:50:00,
2013-03-08 02:55:00,31.9,24.9,29.95,NNE,28,0.0,7.0,75,0.00,,---,0.00,VWS V14.01,2013-03-08 07:55:00,
2013-03-08 03:00:00,31.8,24.8,29.95,NNE,27,1.0,7.0,75,0.00,,---,0.00,VWS V14.01,2013-03-08 08:00:00,
2013-03-08 03:05:00,31.9,24.9,29.95,NNE,23,0.0,3.0,75,0.00,,---,0.00,VWS V14.01,2013-03-08 08:05:00,
2013-03-08 03:10:00,31.8,24.8,29.95,ENE,64,0.0,3.0,75,0.00,,---,0.00,VWS V14.01,2013-03-08 08:10:00,
2013-03-08 03:15:00,31.8,24.8,29.95,North,10,2.0,3.0,75,0.00,,---,0.00,VWS V14.01,2013-03-08 08:15:00,
2013-03-08 03:20:00,31.8,24.8,29.95,North,350,5.0,5.0,75,0.00,,---,0.00,VWS V14.01,2013-03-08 08:20:00,
2013-03-08 03:25:00,31.8,24.8,29.95,ENE,71,0.0,5.0,75,0.00,,---,0.00,VWS V14.01,2013-03-08 08:25:00,
2013-03-08 03:30:00,31.8,25.1,29.95,ENE,72,1.0,5.0,76,0.00,,---,0.00,VWS V14.01,2013-03-08 08:30:00,
2013-03-08 03:35:00,31.8,25.1,29.95,NE,34,2.0,5.0,76,0.00,,---,0.00,VWS V14.01,2013-03-08 08:35:00,
2013-03-08 03:40:00,31.8,25.1,29.95,North,1,0.0,5.0,76,0.00,,---,0.00,VWS V14.01,2013-03-08 08:40:00,
2013-03-08 03:45:00,31.8,25.1,29.95,WNW,302,14.0,14.0,76,0.00,,---,0.00,VWS V14.01,2013-03-08 08:45:00,
2013-03-08 03:50:00,31.8,25.1,29.95,NE,41,0.0,14.0,76,0.00,,---,0.00,VWS V14.01,2013-03-08 08:50:00,
2013-03-08 03:56:00,31.8,25.1,29.95,NE,45,0.0,14.0,76,0.00,,---,0.00,VWS V14.01,2013-03-08 08:56:00,
2013-03-08 04:00:00,31.8,25.1,29.95,ENE,78,3.0,10.0,76,0.00,,---,-99.99,VWS V14.01,2013-03-08 09:00:00,
2013-03-08 04:01:00,31.8,25.1,29.95,NNE,30,2.0,2.0,76,0.00,,---,0.00,VWS V14.01,2013-03-08 09:01:00,
2013-03-08 04:06:00,31.8,25.1,29.95,NE,51,1.0,2.0,76,0.00,,---,0.00,VWS V14.01,2013-03-08 09:06:00,
2013-03-08 04:11:00,31.8,25.1,29.95,NE,42,1.0,2.0,76,0.00,,---,0.00,VWS V14.01,2013-03-08 09:11:00,
2013-03-08 04:16:00,31.8,25.1,29.95,NE,47,1.0,2.0,76,0.00,,---,0.00,VWS V14.01,2013-03-08 09:16:00,
2013-03-08 04:21:00,31.8,25.1,29.95,ENE,61,1.0,2.0,76,0.00,,---,0.00,VWS V14.01,2013-03-08 09:21:00,
2013-03-08 04:26:00,31.8,25.1,29.95,ENE,64,2.0,10.0,76,0.00,,---,0.00,VWS V14.01,2013-03-08 09:26:00,
2013-03-08 04:31:00,31.8,25.1,29.95,North,0,5.0,10.0,76,0.00,,---,0.00,VWS V14.01,2013-03-08 09:31:00,
2013-03-08 04:36:00,31.8,25.1,29.95,North,3,6.0,10.0,76,0.00,,---,0.00,VWS V14.01,2013-03-08 09:36:00,
2013-03-08 04:41:00,31.8,25.1,29.95,NE,41,8.0,10.0,76,0.00,,---,0.00,VWS V14.01,2013-03-08 09:41:00,
2013-03-08 04:46:00,31.6,24.9,29.95,NE,47,0.0,10.0,76,0.00,,---,0.00,VWS V14.01,2013-03-08 09:46:00,
2013-03-08 04:51:00,31.6,24.9,29.95,NNE,28,0.0,10.0,76,0.00,,---,0.00,VWS V14.01,2013-03-08 09:51:00,
2013-03-08 04:56:00,31.8,25.1,29.95,ENE,78,0.0,10.0,76,0.00,,---,0.00,VWS V14.01,2013-03-08 09:56:00,
2013-03-08 05:00:00,31.5,24.8,29.96,North,352,2.0,10.0,76,0.00,,---,-99.99,VWS V14.01,2013-03-08 10:00:00,
2013-03-08 05:02:00,31.6,24.9,29.95,NNE,18,1.0,3.0,76,0.00,,---,0.00,VWS V14.01,2013-03-08 10:02:00,
2013-03-08 05:07:00,31.6,24.9,29.95,NE,44,5.0,6.0,76,0.00,,---,0.00,VWS V14.01,2013-03-08 10:07:00,
2013-03-08 05:12:00,31.6,24.9,29.95,NE,52,10.0,10.0,76,0.00,,---,0.00,VWS V14.01,2013-03-08 10:12:00,
2013-03-08 05:17:00,31.6,24.9,29.95,NE,49,1.0,10.0,76,0.00,,---,0.00,VWS V14.01,2013-03-08 10:17:00,
2013-03-08 05:22:00,31.5,24.8,29.95,NE,41,0.0,10.0,76,0.00,,---,0.00,VWS V14.01,2013-03-08 10:22:00,
2013-03-08 05:27:00,31.5,24.8,29.95,North,0,0.0,10.0,76,0.00,,---,0.00,VWS V14.01,2013-03-08 10:27:00,
2013-03-08 05:32:00,31.5,24.8,29.96,North,359,5.0,10.0,76,0.00,,---,0.00,VWS V14.01,2013-03-08 10:32:00,
2013-03-08 05:37:00,31.5,24.8,29.96,NNW,343,0.0,10.0,76,0.00,,---,0.00,VWS V14.01,2013-03-08 10:37:00,
2013-03-08 05:42:00,31.5,24.8,29.96,ENE,72,1.0,10.0,76,0.00,,---,0.00,VWS V14.01,2013-03-08 10:42:00,
2013-03-08 05:48:00,31.5,24.8,29.96,ENE,68,4.0,10.0,76,0.00,,---,0.00,VWS V14.01,2013-03-08 10:48:00,
2013-03-08 05:53:00,31.5,24.8,29.96,NE,56,3.0,10.0,76,0.00,,---,0.00,VWS V14.01,2013-03-08 10:53:00,
2013-03-08 05:58:00,31.5,24.8,29.96,NE,42,0.0,10.0,76,0.00,,---,0.00,VWS V14.01,2013-03-08 10:58:00,
2013-03-08 06:00:00,31.9,25.5,29.97,East,82,1.0,7.0,77,0.00,,---,-99.99,VWS V14.01,2013-03-08 11:00:00,
2013-03-08 06:03:00,31.5,24.8,29.96,ENE,62,3.0,3.0,76,0.00,,---,0.00,VWS V14.01,2013-03-08 11:03:00,
2013-03-08 06:08:00,31.3,24.6,29.96,NE,51,0.0,3.0,76,0.00,,---,0.00,VWS V14.01,2013-03-08 11:08:00,
2013-03-08 06:13:00,31.5,25.1,29.96,NE,52,0.0,3.0,77,0.00,,---,0.00,VWS V14.01,2013-03-08 11:13:00,
2013-03-08 06:18:00,31.5,25.1,29.96,ENE,59,0.0,3.0,77,0.00,,---,0.00,VWS V14.01,2013-03-08 11:18:00,
2013-03-08 06:23:00,31.5,25.1,29.96,North,7,2.0,5.0,77,0.00,,---,0.00,VWS V14.01,2013-03-08 11:23:00,
2013-03-08 06:28:00,31.5,25.1,29.96,NNW,337,7.0,7.0,77,0.00,,---,0.00,VWS V14.01,2013-03-08 11:28:00,
2013-03-08 06:34:00,31.5,25.1,29.96,NNE,16,1.0,7.0,77,0.00,,---,0.00,VWS V14.01,2013-03-08 11:34:00,
2013-03-08 06:39:00,31.5,25.1,29.96,NNW,330,0.0,7.0,77,0.00,,---,0.00,VWS V14.01,2013-03-08 11:39:00,
2013-03-08 06:44:00,31.5,25.1,29.96,NNE,27,5.0,7.0,77,0.00,,---,0.00,VWS V14.01,2013-03-08 11:44:00,
2013-03-08 06:49:00,31.5,25.1,29.97,NNE,13,2.0,7.0,77,0.00,,---,0.00,VWS V14.01,2013-03-08 11:49:00,
2013-03-08 06:54:00,31.5,25.1,29.97,NNE,20,0.0,7.0,77,0.00,,---,0.00,VWS V14.01,2013-03-08 11:54:00,
2013-03-08 06:59:00,31.9,25.5,29.97,North,7,0.0,7.0,77,0.00,,---,0.00,VWS V14.01,2013-03-08 11:59:00,
2013-03-08 07:00:00,32.7,25.3,29.96,North,356,4.0,10.0,74,0.00,,---,-99.99,VWS V14.01,2013-03-08 12:00:00,
2013-03-08 07:04:00,32.1,25.7,29.97,NNW,332,2.0,2.0,77,0.00,,---,0.00,VWS V14.01,2013-03-08 12:04:00,
2013-03-08 07:09:00,32.1,25.1,29.97,ENE,75,0.0,3.0,75,0.00,,---,0.00,VWS V14.01,2013-03-08 12:09:00,
2013-03-08 07:14:00,32.2,25.2,29.97,NE,55,2.0,10.0,75,0.00,,---,0.00,VWS V14.01,2013-03-08 12:14:00,
2013-03-08 07:19:00,32.1,25.1,29.97,NE,56,1.0,10.0,75,0.00,,---,0.00,VWS V14.01,2013-03-08 12:19:00,
2013-03-08 07:25:00,32.2,25.2,29.97,NE,49,0.0,10.0,75,0.00,,---,0.00,VWS V14.01,2013-03-08 12:25:00,
2013-03-08 07:30:00,32.2,25.2,29.97,NNE,28,2.0,10.0,75,0.00,,---,0.00,VWS V14.01,2013-03-08 12:30:00,
2013-03-08 07:35:00,32.2,24.9,29.97,North,0,0.0,10.0,74,0.00,,---,0.00,VWS V14.01,2013-03-08 12:35:00,
2013-03-08 07:40:00,32.2,24.9,29.97,North,357,7.0,10.0,74,0.00,,---,0.00,VWS V14.01,2013-03-08 12:40:00,
2013-03-08 07:45:00,32.2,24.9,29.97,North,1,7.0,10.0,74,0.00,,---,0.00,VWS V14.01,2013-03-08 12:45:00,
2013-03-08 07:50:00,32.2,24.9,29.97,North,1,0.0,10.0,74,0.00,,---,0.00,VWS V14.01,2013-03-08 12:50:00,
2013-03-08 07:55:00,32.7,25.3,29.97,ENE,66,0.0,10.0,74,0.00,,---,0.00,VWS V14.01,2013-03-08 12:55:00,
2013-03-08 08:00:00,32.7,25.3,29.96,North,356,4.0,10.0,74,0.00,,---,0.00,VWS V14.01,2013-03-08 13:00:00,
2013-03-08 08:05:00,32.9,25.5,29.96,ENE,66,0.0,5.0,74,0.00,,---,0.00,VWS V14.01,2013-03-08 13:05:00,
2013-03-08 08:11:00,32.9,25.5,29.96,NNE,20,2.0,5.0,74,0.00,,---,0.00,VWS V14.01,2013-03-08 13:11:00,
2013-03-08 08:16:00,33.1,25.4,29.96,NNE,24,1.0,5.0,73,0.00,,---,0.00,VWS V14.01,2013-03-08 13:16:00,
2013-03-08 08:21:00,33.1,25.4,29.96,NNE,21,6.0,6.0,73,0.00,,---,0.00,VWS V14.01,2013-03-08 13:21:00,
2013-03-08 08:26:00,33.1,25.4,29.96,NE,49,0.0,6.0,73,0.00,,---,0.00,VWS V14.01,2013-03-08 13:26:00,
2013-03-08 08:31:00,33.1,25.4,29.97,North,8,0.0,6.0,73,0.00,,---,0.00,VWS V14.01,2013-03-08 13:31:00,
2013-03-08 08:36:00,33.1,25.4,29.97,NE,45,3.0,6.0,73,0.00,,---,0.00,VWS V14.01,2013-03-08 13:36:00,
2013-03-08 08:41:00,33.4,25.7,29.97,ENE,71,1.0,7.0,73,0.00,,---,0.00,VWS V14.01,2013-03-08 13:41:00,
2013-03-08 08:46:00,33.4,24.7,29.96,North,0,11.0,11.0,70,0.00,,---,0.00,VWS V14.01,2013-03-08 13:46:00,
2013-03-08 08:51:00,33.4,24.7,29.96,NW,312,5.0,11.0,70,0.00,,---,0.00,VWS V14.01,2013-03-08 13:51:00,
2013-03-08 08:56:00,33.8,24.7,29.96,NNE,16,4.0,11.0,69,0.00,,---,0.00,VWS V14.01,2013-03-08 13:56:00,
2013-03-08 09:00:00,36.8,26.1,29.96,ENE,64,5.0,8.0,65,0.00,,---,-99.99,VWS V14.01,2013-03-08 14:00:00,
2013-03-08 09:01:00,34.1,25.0,29.96,ENE,72,0.0,5.0,69,0.00,,---,0.00,VWS V14.01,2013-03-08 14:01:00,
2013-03-08 09:06:00,34.1,25.0,29.96,NNE,23,2.0,5.0,69,0.00,,---,0.00,VWS V14.01,2013-03-08 14:06:00,
2013-03-08 09:11:00,34.6,25.5,29.96,WNW,284,2.0,8.0,69,0.00,,---,0.00,VWS V14.01,2013-03-08 14:11:00,
2013-03-08 09:16:00,34.7,25.6,29.96,North,0,8.0,8.0,69,0.00,,---,0.00,VWS V14.01,2013-03-08 14:16:00,
2013-03-08 09:22:00,34.7,25.6,29.96,North,0,8.0,8.0,69,0.00,,---,0.00,VWS V14.01,2013-03-08 14:22:00,
2013-03-08 09:27:00,34.7,25.6,29.96,WSW,244,0.0,8.0,69,0.00,,---,0.00,VWS V14.01,2013-03-08 14:27:00,
2013-03-08 09:32:00,34.7,24.1,29.96,NNE,20,3.0,8.0,65,0.00,,---,0.00,VWS V14.01,2013-03-08 14:32:00,
2013-03-08 09:37:00,34.7,24.1,29.96,ENE,64,0.0,8.0,65,0.00,,---,0.00,VWS V14.01,2013-03-08 14:37:00,
2013-03-08 09:42:00,34.7,24.1,29.96,NNE,13,6.0,8.0,65,0.00,,---,0.00,VWS V14.01,2013-03-08 14:42:00,
2013-03-08 09:47:00,35.9,25.3,29.96,ENE,76,6.0,8.0,65,0.00,,---,0.00,VWS V14.01,2013-03-08 14:47:00,
2013-03-08 09:52:00,36.6,26.0,29.96,ENE,69,5.0,8.0,65,0.00,,---,0.00,VWS V14.01,2013-03-08 14:52:00,
2013-03-08 09:57:00,36.8,26.1,29.96,ENE,64,5.0,8.0,65,0.00,,---,0.00,VWS V14.01,2013-03-08 14:57:00,
2013-03-08 10:00:00,39.5,28.7,29.96,NE,44,0.0,8.0,65,0.00,,---,-99.99,VWS V14.01,2013-03-08 15:00:00,
2013-03-08 10:02:00,37.0,26.3,29.96,West,271,5.0,5.0,65,0.00,,---,0.00,VWS V14.01,2013-03-08 15:02:00,
2013-03-08 10:07:00,37.0,26.3,29.96,North,352,8.0,8.0,65,0.00,,---,0.00,VWS V14.01,2013-03-08 15:07:00,
2013-03-08 10:13:00,37.0,26.3,29.96,ENE,61,0.0,8.0,65,0.00,,---,0.00,VWS V14.01,2013-03-08 15:13:00,
2013-03-08 10:18:00,37.6,26.9,29.96,NNE,24,8.0,8.0,65,0.00,,---,0.00,VWS V14.01,2013-03-08 15:18:00,
2013-03-08 10:23:00,37.6,26.9,29.96,North,1,2.0,8.0,65,0.00,,---,0.00,VWS V14.01,2013-03-08 15:23:00,
2013-03-08 10:28:00,37.6,26.9,29.96,NNE,24,1.0,8.0,65,0.00,,---,0.00,VWS V14.01,2013-03-08 15:28:00,
2013-03-08 10:33:00,38.0,27.3,29.97,North,0,5.0,8.0,65,0.00,,---,0.00,VWS V14.01,2013-03-08 15:33:00,
2013-03-08 10:38:00,38.0,27.3,29.97,NE,35,0.0,8.0,65,0.00,,---,0.00,VWS V14.01,2013-03-08 15:38:00,
2013-03-08 10:43:00,38.8,28.1,29.97,NNE,31,3.0,8.0,65,0.00,,---,0.00,VWS V14.01,2013-03-08 15:43:00,
2013-03-08 10:48:00,38.8,28.1,29.96,NNE,31,3.0,8.0,65,0.00,,---,0.00,VWS V14.01,2013-03-08 15:48:00,
2013-03-08 10:53:00,38.8,28.1,29.96,North,359,2.0,8.0,65,0.00,,---,0.00,VWS V14.01,2013-03-08 15:53:00,
2013-03-08 10:58:00,38.8,28.1,29.96,North,359,7.0,8.0,65,0.00,,---,0.00,VWS V14.01,2013-03-08 15:58:00,
2013-03-08 11:00:00,43.9,25.5,29.96,North,7,0.0,12.0,48,0.00,,---,-99.99,VWS V14.01,2013-03-08 16:00:00,
2013-03-08 11:03:00,39.5,28.7,29.96,ENE,75,1.0,1.0,65,0.00,,---,0.00,VWS V14.01,2013-03-08 16:03:00,
2013-03-08 11:09:00,39.8,25.4,29.96,NE,56,3.0,10.0,56,0.00,,---,0.00,VWS V14.01,2013-03-08 16:09:00,
2013-03-08 11:14:00,39.9,25.5,29.96,NNE,16,1.0,10.0,56,0.00,,---,0.00,VWS V14.01,2013-03-08 16:14:00,
2013-03-08 11:19:00,40.3,25.4,29.96,ENE,62,3.0,10.0,55,0.00,,---,0.00,VWS V14.01,2013-03-08 16:19:00,
2013-03-08 11:24:00,40.3,25.4,29.96,North,10,2.0,10.0,55,0.00,,---,0.00,VWS V14.01,2013-03-08 16:24:00,
2013-03-08 11:29:00,41.9,26.9,29.96,North,8,3.0,10.0,55,0.00,,---,0.00,VWS V14.01,2013-03-08 16:29:00,
2013-03-08 11:34:00,42.6,27.6,29.96,North,354,2.0,10.0,55,0.00,,---,0.00,VWS V14.01,2013-03-08 16:34:00,
2013-03-08 11:39:00,42.6,27.6,29.96,NE,47,0.0,10.0,55,0.00,,---,0.00,VWS V14.01,2013-03-08 16:39:00,
2013-03-08 11:45:00,42.6,27.6,29.97,NNE,30,0.0,10.0,55,0.00,,---,0.00,VWS V14.01,2013-03-08 16:45:00,
2013-03-08 11:50:00,42.6,27.6,29.97,NE,44,4.0,10.0,55,0.00,,---,0.00,VWS V14.01,2013-03-08 16:50:00,
2013-03-08 11:55:00,43.9,28.8,29.97,ENE,61,2.0,12.0,55,0.00,,---,0.00,VWS V14.01,2013-03-08 16:55:00,
2013-03-08 12:00:00,43.9,25.5,29.96,East,88,2.0,12.0,48,0.00,,---,0.00,VWS V14.01,2013-03-08 17:00:00,
2013-03-08 12:05:00,44.2,25.8,29.96,WSW,243,0.0,11.0,48,0.00,,---,0.00,VWS V14.01,2013-03-08 17:05:00,
2013-03-08 12:10:00,44.1,25.7,29.96,ENE,71,2.0,11.0,48,0.00,,---,0.00,VWS V14.01,2013-03-08 17:10:00,
2013-03-08 12:15:00,44.5,26.0,29.96,East,79,11.0,13.0,48,0.00,,---,0.00,VWS V14.01,2013-03-08 17:15:00,
2013-03-08 12:20:00,44.5,26.0,29.96,ENE,75,2.0,13.0,48,0.00,,---,0.00,VWS V14.01,2013-03-08 17:20:00,
2013-03-08 12:25:00,44.1,25.7,29.96,North,359,2.0,13.0,48,0.00,,---,0.00,VWS V14.01,2013-03-08 17:25:00,
2013-03-08 12:30:00,43.9,25.5,29.96,NE,42,0.0,13.0,48,0.00,,---,0.00,VWS V14.01,2013-03-08 17:30:00,
2013-03-08 12:35:00,43.9,25.5,29.96,East,82,3.0,13.0,48,0.00,,---,0.00,VWS V14.01,2013-03-08 17:35:00,
2013-03-08 12:40:00,43.9,25.5,29.96,NNE,21,0.0,13.0,48,0.00,,---,0.00,VWS V14.01,2013-03-08 17:40:00,
2013-03-08 12:45:00,43.9,25.5,29.95,NNE,21,0.0,13.0,48,0.00,,---,0.00,VWS V14.01,2013-03-08 17:45:00,
2013-03-08 12:50:00,43.9,25.5,29.95,NNE,21,0.0,13.0,48,0.00,,---,0.00,VWS V14.01,2013-03-08 17:50:00,
2013-03-08 12:55:00,43.9,25.5,29.95,NNE,21,0.0,13.0,48,0.00,,---,0.00,VWS V14.01,2013-03-08 17:55:00,
2013-03-08 13:00:00,43.9,25.5,29.95,NNE,21,0.0,13.0,48,0.00,,---,0.00,VWS V14.01,2013-03-08 18:00:00,
2013-03-08 13:05:00,43.9,25.5,29.95,ENE,62,0.0,6.0,48,0.00,,---,0.00,VWS V14.01,2013-03-08 18:05:00,
2013-03-08 13:10:00,44.3,25.9,29.95,NW,325,1.0,6.0,48,0.00,,---,0.00,VWS V14.01,2013-03-08 18:10:00,
2013-03-08 13:16:00,44.5,26.0,29.95,East,82,0.0,6.0,48,0.00,,---,0.00,VWS V14.01,2013-03-08 18:16:00,
2013-03-08 13:21:00,44.5,26.0,29.95,NW,305,2.0,6.0,48,0.00,,---,0.00,VWS V14.01,2013-03-08 18:21:00,
2013-03-08 13:26:00,44.5,26.0,29.95,North,0,1.0,6.0,48,0.00,,---,0.00,VWS V14.01,2013-03-08 18:26:00,
2013-03-08 13:31:00,45.2,26.7,29.95,North,359,3.0,7.0,48,0.00,,---,0.00,VWS V14.01,2013-03-08 18:31:00,
2013-03-08 13:36:00,45.5,27.0,29.95,North,10,6.0,7.0,48,0.00,,---,0.00,VWS V14.01,2013-03-08 18:36:00,
2013-03-08 13:41:00,45.4,26.9,29.95,ENE,58,0.0,7.0,48,0.00,,---,0.00,VWS V14.01,2013-03-08 18:41:00,
2013-03-08 13:46:00,45.2,26.7,29.95,SE,126,1.0,7.0,48,0.00,,---,0.00,VWS V14.01,2013-03-08 18:46:00,
2013-03-08 13:51:00,45.7,23.4,29.95,ENE,65,5.0,8.0,41,0.00,,---,0.00,VWS V14.01,2013-03-08 18:51:00,
2013-03-08 13:56:00,45.8,23.5,29.95,North,3,3.0,8.0,41,0.00,,---,0.00,VWS V14.01,2013-03-08 18:56:00,
2013-03-08 14:00:00,44.6,23.5,29.97,ENE,75,0.0,9.0,43,0.00,,---,-99.99,VWS V14.01,2013-03-08 19:00:00,
2013-03-08 14:01:00,45.8,23.5,29.95,NE,35,0.0,0.0,41,0.00,,---,0.00,VWS V14.01,2013-03-08 19:01:00,
2013-03-08 14:06:00,45.8,23.5,29.95,NNE,18,3.0,3.0,41,0.00,,---,0.00,VWS V14.01,2013-03-08 19:06:00,
2013-03-08 14:12:00,45.8,23.5,29.95,ENE,66,0.0,5.0,41,0.00,,---,0.00,VWS V14.01,2013-03-08 19:12:00,
2013-03-08 14:17:00,45.8,23.5,29.97,NE,49,1.0,6.0,41,0.00,,---,0.00,VWS V14.01,2013-03-08 19:17:00,
2013-03-08 14:22:00,44.3,22.1,29.97,North,352,0.0,7.0,41,0.00,,---,0.00,VWS V14.01,2013-03-08 19:22:00,
2013-03-08 14:27:00,43.9,21.7,29.97,North,356,9.0,9.0,41,0.00,,---,0.00,VWS V14.01,2013-03-08 19:27:00,
2013-03-08 14:32:00,43.9,21.7,29.97,NE,38,0.0,9.0,41,0.00,,---,0.00,VWS V14.01,2013-03-08 19:32:00,
2013-03-08 14:37:00,43.9,21.7,29.97,NE,38,0.0,9.0,41,0.00,,---,0.00,VWS V14.01,2013-03-08 19:37:00,
2013-03-08 14:42:00,44.1,21.9,29.97,North,10,0.0,9.0,41,0.00,,---,0.00,VWS V14.01,2013-03-08 19:42:00,
2013-03-08 14:47:00,44.1,21.9,29.97,East,79,2.0,9.0,41,0.00,,---,0.00,VWS V14.01,2013-03-08 19:47:00,
2013-03-08 14:52:00,44.1,23.0,29.97,ENE,61,2.0,9.0,43,0.00,,---,0.00,VWS V14.01,2013-03-08 19:52:00,
2013-03-08 14:57:00,44.5,23.4,29.97,North,0,0.0,9.0,43,0.00,,---,0.00,VWS V14.01,2013-03-08 19:57:00,
2013-03-08 15:00:00,44.1,24.1,29.99,NE,56,0.0,5.0,45,0.00,,---,-99.99,VWS V14.01,2013-03-08 20:00:00,
2013-03-08 15:02:00,44.6,23.5,29.97,NE,44,2.0,2.0,43,0.00,,---,0.00,VWS V14.01,2013-03-08 20:02:00,
2013-03-08 15:07:00,44.6,23.5,29.97,NNE,16,3.0,3.0,43,0.00,,---,0.00,VWS V14.01,2013-03-08 20:07:00,
2013-03-08 15:12:00,44.3,23.2,29.97,East,82,4.0,5.0,43,0.00,,---,0.00,VWS V14.01,2013-03-08 20:12:00,
2013-03-08 15:17:00,44.3,23.2,29.98,ENE,66,1.0,5.0,43,0.00,,---,0.00,VWS V14.01,2013-03-08 20:17:00,
2013-03-08 15:22:00,44.2,23.7,29.98,ENE,76,2.0,5.0,44,0.00,,---,0.00,VWS V14.01,2013-03-08 20:22:00,
2013-03-08 15:27:00,44.2,24.2,29.98,NNE,21,0.0,5.0,45,0.00,,---,0.00,VWS V14.01,2013-03-08 20:27:00,
2013-03-08 15:32:00,44.2,24.2,29.97,ENE,75,3.0,5.0,45,0.00,,---,0.00,VWS V14.01,2013-03-08 20:32:00,
2013-03-08 15:37:00,44.2,24.2,29.97,NE,37,0.0,5.0,45,0.00,,---,0.00,VWS V14.01,2013-03-08 20:37:00,
2013-03-08 15:42:00,44.2,24.2,29.97,NE,37,0.0,5.0,45,0.00,,---,0.00,VWS V14.01,2013-03-08 20:42:00,
2013-03-08 15:47:00,44.2,24.2,29.98,NE,55,0.0,5.0,45,0.00,,---,0.00,VWS V14.01,2013-03-08 20:47:00,
2013-03-08 15:52:00,44.2,24.2,29.98,NNE,20,0.0,5.0,45,0.00,,---,0.00,VWS V14.01,2013-03-08 20:52:00,
2013-03-08 15:58:00,44.1,24.1,29.98,NE,56,0.0,5.0,45,0.00,,---,0.00,VWS V14.01,2013-03-08 20:58:00,
2013-03-08 16:00:00,42.5,23.2,30.01,North,359,2.0,6.0,46,0.00,,---,-99.99,VWS V14.01,2013-03-08 21:00:00,
2013-03-08 16:03:00,44.1,24.1,29.99,ENE,68,1.0,1.0,45,0.00,,---,0.00,VWS V14.01,2013-03-08 21:03:00,
2013-03-08 16:08:00,44.1,24.1,29.99,NE,45,3.0,3.0,45,0.00,,---,0.00,VWS V14.01,2013-03-08 21:08:00,
2013-03-08 16:13:00,43.8,23.9,29.99,North,0,3.0,3.0,45,0.00,,---,0.00,VWS V14.01,2013-03-08 21:13:00,
2013-03-08 16:18:00,43.8,23.9,29.99,North,1,6.0,6.0,45,0.00,,---,0.00,VWS V14.01,2013-03-08 21:18:00,
2013-03-08 16:23:00,43.1,23.2,29.99,NE,52,0.0,6.0,45,0.00,,---,0.00,VWS V14.01,2013-03-08 21:23:00,
2013-03-08 16:28:00,42.9,23.6,29.99,NE,51,2.0,6.0,46,0.00,,---,0.00,VWS V14.01,2013-03-08 21:28:00,
2013-03-08 16:33:00,42.8,23.5,30.00,North,7,2.0,6.0,46,0.00,,---,0.00,VWS V14.01,2013-03-08 21:33:00,
2013-03-08 16:38:00,42.6,23.3,30.00,South,178,5.0,6.0,46,0.00,,---,0.00,VWS V14.01,2013-03-08 21:38:00,
2013-03-08 16:43:00,42.5,23.2,30.00,North,0,1.0,6.0,46,0.00,,---,0.00,VWS V14.01,2013-03-08 21:43:00,
2013-03-08 16:48:00,42.5,23.2,30.01,North,0,1.0,6.0,46,0.00,,---,0.00,VWS V14.01,2013-03-08 21:48:00,
2013-03-08 16:54:00,42.5,23.2,30.01,East,82,0.0,6.0,46,0.00,,---,0.00,VWS V14.01,2013-03-08 21:54:00,
2013-03-08 16:59:00,42.5,23.2,30.01,NE,49,0.0,6.0,46,0.00,,---,0.00,VWS V14.01,2013-03-08 21:59:00,
2013-03-08 17:00:00,40.5,21.4,30.04,NNW,343,2.0,10.0,46,0.00,,---,-99.99,VWS V14.01,2013-03-08 22:00:00,
2013-03-08 17:04:00,42.5,23.2,30.01,NE,41,0.0,2.0,46,0.00,,---,0.00,VWS V14.01,2013-03-08 22:04:00,
2013-03-08 17:09:00,41.6,22.4,30.01,North,359,3.0,10.0,46,0.00,,---,0.00,VWS V14.01,2013-03-08 22:09:00,
2013-03-08 17:14:00,41.3,22.1,30.01,NE,49,1.0,10.0,46,0.00,,---,0.00,VWS V14.01,2013-03-08 22:14:00,
2013-03-08 17:19:00,41.3,22.1,30.02,NE,40,0.0,10.0,46,0.00,,---,0.00,VWS V14.01,2013-03-08 22:19:00,
2013-03-08 17:24:00,41.3,22.1,30.02,NE,40,0.0,10.0,46,0.00,,---,0.00,VWS V14.01,2013-03-08 22:24:00,
2013-03-08 17:29:00,41.1,21.9,30.02,NNE,24,0.0,10.0,46,0.00,,---,0.00,VWS V14.01,2013-03-08 22:29:00,
2013-03-08 17:34:00,40.8,21.6,30.03,NE,48,0.0,10.0,46,0.00,,---,0.00,VWS V14.01,2013-03-08 22:34:00,
2013-03-08 17:39:00,40.8,21.6,30.03,North,359,6.0,10.0,46,0.00,,---,0.00,VWS V14.01,2013-03-08 22:39:00,
2013-03-08 17:44:00,40.5,21.4,30.03,NNE,16,0.0,10.0,46,0.00,,---,0.00,VWS V14.01,2013-03-08 22:44:00,
2013-03-08 17:49:00,40.3,21.2,30.03,NNE,23,7.0,10.0,46,0.00,,---,0.00,VWS V14.01,2013-03-08 22:49:00,
2013-03-08 17:54:00,40.5,21.4,30.03,North,6,1.0,10.0,46,0.00,,---,0.00,VWS V14.01,2013-03-08 22:54:00,
2013-03-08 17:59:00,40.5,21.4,30.04,NNW,343,2.0,10.0,46,0.00,,---,0.00,VWS V14.01,2013-03-08 22:59:00,
2013-03-08 18:00:00,38.8,24.0,30.06,ENE,73,2.0,4.0,55,0.00,,---,-99.99,VWS V14.01,2013-03-08 23:00:00,
2013-03-08 18:05:00,40.1,21.0,30.04,NNE,16,1.0,2.0,46,0.00,,---,0.00,VWS V14.01,2013-03-08 23:05:00,
2013-03-08 18:10:00,40.1,21.0,30.04,NNE,21,0.0,3.0,46,0.00,,---,0.00,VWS V14.01,2013-03-08 23:10:00,
2013-03-08 18:15:00,39.9,20.8,30.05,ENE,76,0.0,3.0,46,0.00,,---,0.00,VWS V14.01,2013-03-08 23:15:00,
2013-03-08 18:20:00,39.9,20.8,30.05,ENE,76,0.0,3.0,46,0.00,,---,0.00,VWS V14.01,2013-03-08 23:20:00,
2013-03-08 18:25:00,39.3,20.3,30.05,NNE,31,4.0,4.0,46,0.00,,---,0.00,VWS V14.01,2013-03-08 23:25:00,
2013-03-08 18:30:00,39.3,24.1,30.05,NNE,21,0.0,4.0,54,0.00,,---,0.00,VWS V14.01,2013-03-08 23:30:00,
2013-03-08 18:35:00,39.2,24.0,30.05,North,356,1.0,4.0,54,0.00,,---,0.00,VWS V14.01,2013-03-08 23:35:00,
2013-03-08 18:40:00,39.2,24.0,30.05,NNE,13,0.0,4.0,54,0.00,,---,0.00,VWS V14.01,2013-03-08 23:40:00,
2013-03-08 18:45:00,39.2,24.4,30.06,North,352,0.0,4.0,55,0.00,,---,0.00,VWS V14.01,2013-03-08 23:45:00,
2013-03-08 18:50:00,39.2,24.4,30.06,ENE,68,3.0,4.0,55,0.00,,---,0.00,VWS V14.01,2013-03-08 23:50:00,
2013-03-08 18:55:00,38.8,24.0,30.06,NNE,31,1.0,4.0,55,0.00,,---,0.00,VWS V14.01,2013-03-08 23:55:00,
2013-03-08 19:00:00,38.8,24.0,30.06,ENE,73,2.0,2.0,55,0.00,,---,0.00,VWS V14.01,2013-03-09 00:00:00,
2013-03-08 19:05:00,38.6,23.8,30.06,NNE,23,0.0,3.0,55,0.00,,---,0.00,VWS V14.01,2013-03-09 00:05:00,
2013-03-08 19:10:00,38.3,23.6,30.06,NE,47,0.0,3.0,55,0.00,,---,0.00,VWS V14.01,2013-03-09 00:10:00,
2013-03-08 19:15:00,38.2,23.5,30.07,East,80,4.0,5.0,55,0.00,,---,0.00,VWS V14.01,2013-03-09 00:15:00,
2013-03-08 19:21:00,38.0,23.3,30.07,NNE,25,0.0,5.0,55,0.00,,---,0.00,VWS V14.01,2013-03-09 00:21:00,
2013-03-08 19:26:00,38.0,23.3,30.07,NNE,28,1.0,5.0,55,0.00,,---,0.00,VWS V14.01,2013-03-09 00:26:00,
2013-03-08 19:31:00,37.8,23.1,30.07,NNE,27,0.0,5.0,55,0.00,,---,0.00,VWS V14.01,2013-03-09 00:31:00,
2013-03-08 19:36:00,37.5,22.8,30.07,NE,52,2.0,5.0,55,0.00,,---,0.00,VWS V14.01,2013-03-09 00:36:00,
2013-03-08 19:41:00,37.3,23.5,30.07,NE,51,2.0,5.0,57,0.00,,---,0.00,VWS V14.01,2013-03-09 00:41:00,
2013-03-08 19:46:00,37.2,24.2,30.07,NE,54,0.0,6.0,59,0.00,,---,0.00,VWS V14.01,2013-03-09 00:46:00,
2013-03-08 19:51:00,37.2,23.8,30.07,West,271,2.0,6.0,58,0.00,,---,0.00,VWS V14.01,2013-03-09 00:51:00,
2013-03-08 19:56:00,37.2,23.8,30.07,North,0,2.0,6.0,58,0.00,,---,0.00,VWS V14.01,2013-03-09 00:56:00,
2013-03-08 20:00:00,35.3,22.4,30.09,North,359,1.0,6.0,59,0.00,,---,-99.99,VWS V14.01,2013-03-09 01:00:00,
2013-03-08 20:02:00,37.2,23.8,30.08,NNE,32,0.0,0.0,58,0.00,,---,0.00,VWS V14.01,2013-03-09 01:02:00,
2013-03-08 20:07:00,36.8,23.8,30.08,NE,48,0.0,2.0,59,0.00,,---,0.00,VWS V14.01,2013-03-09 01:07:00,
2013-03-08 20:12:00,36.8,23.8,30.08,NNE,18,0.0,2.0,59,0.00,,---,0.00,VWS V14.01,2013-03-09 01:12:00,
2013-03-08 20:17:00,36.5,23.5,30.08,NNW,328,3.0,3.0,59,0.00,,---,0.00,VWS V14.01,2013-03-09 01:17:00,
2013-03-08 20:22:00,36.3,23.4,30.08,East,80,1.0,3.0,59,0.00,,---,0.00,VWS V14.01,2013-03-09 01:22:00,
2013-03-08 20:27:00,36.2,23.3,30.08,NNE,24,0.0,6.0,59,0.00,,---,0.00,VWS V14.01,2013-03-09 01:27:00,
2013-03-08 20:32:00,36.0,23.1,30.09,NNW,329,1.0,6.0,59,0.00,,---,0.00,VWS V14.01,2013-03-09 01:32:00,
2013-03-08 20:37:00,36.0,23.1,30.09,North,354,0.0,6.0,59,0.00,,---,0.00,VWS V14.01,2013-03-09 01:37:00,
2013-03-08 20:42:00,35.9,23.0,30.09,North,6,0.0,6.0,59,0.00,,---,0.00,VWS V14.01,2013-03-09 01:42:00,
2013-03-08 20:47:00,35.9,23.0,30.09,North,0,6.0,6.0,59,0.00,,---,0.00,VWS V14.01,2013-03-09 01:47:00,
2013-03-08 20:52:00,35.9,23.0,30.09,NNW,347,0.0,6.0,59,0.00,,---,0.00,VWS V14.01,2013-03-09 01:52:00,
2013-03-08 20:57:00,35.3,22.4,30.09,NNE,27,2.0,6.0,59,0.00,,---,0.00,VWS V14.01,2013-03-09 01:57:00,
2013-03-08 21:00:00,34.0,23.5,30.09,ENE,58,2.0,5.0,65,0.00,,---,-99.99,VWS V14.01,2013-03-09 02:00:00,
2013-03-08 21:02:00,35.3,22.4,30.09,North,11,0.0,1.0,59,0.00,,---,0.00,VWS V14.01,2013-03-09 02:02:00,
2013-03-08 21:07:00,35.2,22.3,30.09,NNE,23,0.0,1.0,59,0.00,,---,0.00,VWS V14.01,2013-03-09 02:07:00,
2013-03-08 21:12:00,35.2,22.3,30.09,North,0,0.0,3.0,59,0.00,,---,0.00,VWS V14.01,2013-03-09 02:12:00,
2013-03-08 21:18:00,35.2,22.3,30.09,North,356,0.0,3.0,59,0.00,,---,0.00,VWS V14.01,2013-03-09 02:18:00,
2013-03-08 21:23:00,34.9,24.0,30.09,NNE,18,0.0,3.0,64,0.00,,---,0.00,VWS V14.01,2013-03-09 02:23:00,
2013-03-08 21:28:00,34.7,23.8,30.09,ENE,66,5.0,5.0,64,0.00,,---,0.00,VWS V14.01,2013-03-09 02:28:00,
2013-03-08 21:33:00,34.6,23.7,30.09,NNE,23,3.0,5.0,64,0.00,,---,0.00,VWS V14.01,2013-03-09 02:33:00,
2013-03-08 21:38:00,34.6,23.7,30.09,NNW,344,1.0,5.0,64,0.00,,---,0.00,VWS V14.01,2013-03-09 02:38:00,
2013-03-08 21:43:00,34.6,24.1,30.09,ENE,58,3.0,5.0,65,0.00,,---,0.00,VWS V14.01,2013-03-09 02:43:00,
2013-03-08 21:48:00,34.1,23.6,30.09,NE,52,0.0,5.0,65,0.00,,---,0.00,VWS V14.01,2013-03-09 02:48:00,
2013-03-08 21:53:00,34.1,23.6,30.09,NNE,28,0.0,5.0,65,0.00,,---,0.00,VWS V14.01,2013-03-09 02:53:00,
2013-03-08 21:58:00,34.0,23.5,30.09,ENE,58,2.0,5.0,65,0.00,,---,0.00,VWS V14.01,2013-03-09 02:58:00,
2013-03-08 22:00:00,32.8,22.3,30.09,North,0,1.0,5.0,65,0.00,,---,-99.99,VWS V14.01,2013-03-09 03:00:00,
2013-03-08 22:03:00,33.8,23.3,30.09,NNE,23,1.0,2.0,65,0.00,,---,0.00,VWS V14.01,2013-03-09 03:03:00,
2013-03-08 22:09:00,33.8,23.3,30.09,NNW,329,0.0,2.0,65,0.00,,---,0.00,VWS V14.01,2013-03-09 03:09:00,
2013-03-08 22:14:00,33.7,23.2,30.09,ENE,72,0.0,3.0,65,0.00,,---,0.00,VWS V14.01,2013-03-09 03:14:00,
2013-03-08 22:19:00,33.7,23.2,30.09,NE,52,0.0,3.0,65,0.00,,---,0.00,VWS V14.01,2013-03-09 03:19:00,
2013-03-08 22:24:00,33.7,23.2,30.09,NW,322,0.0,3.0,65,0.00,,---,0.00,VWS V14.01,2013-03-09 03:24:00,
2013-03-08 22:29:00,33.5,23.0,30.10,NE,56,0.0,3.0,65,0.00,,---,0.00,VWS V14.01,2013-03-09 03:29:00,
2013-03-08 22:35:00,33.5,23.0,30.10,NE,45,0.0,3.0,65,0.00,,---,0.00,VWS V14.01,2013-03-09 03:35:00,
2013-03-08 22:40:00,33.5,23.0,30.10,NE,40,3.0,3.0,65,0.00,,---,0.00,VWS V14.01,2013-03-09 03:40:00,
2013-03-08 22:45:00,33.1,22.6,30.10,ESE,102,0.0,3.0,65,0.00,,---,0.00,VWS V14.01,2013-03-09 03:45:00,
2013-03-08 22:50:00,33.1,22.6,30.10,NNE,16,0.0,3.0,65,0.00,,---,0.00,VWS V14.01,2013-03-09 03:50:00,
2013-03-08 22:55:00,32.8,22.3,30.10,North,352,1.0,5.0,65,0.00,,---,0.00,VWS V14.01,2013-03-09 03:55:00,
2013-03-08 23:00:00,32.8,22.3,30.09,North,0,1.0,5.0,65,0.00,,---,0.00,VWS V14.01,2013-03-09 04:00:00,
2013-03-08 23:05:00,32.8,23.1,30.09,NNE,25,2.0,2.0,67,0.00,,---,0.00,VWS V14.01,2013-03-09 04:05:00,
2013-03-08 23:10:00,32.8,23.1,30.09,North,0,0.0,3.0,67,0.00,,---,0.00,VWS V14.01,2013-03-09 04:10:00,
2013-03-08 23:15:00,32.8,23.1,30.10,NNW,347,3.0,3.0,67,0.00,,---,0.00,VWS V14.01,2013-03-09 04:15:00,
2013-03-08 23:21:00,32.8,23.1,30.10,NE,37,1.0,3.0,67,0.00,,---,0.00,VWS V14.01,2013-03-09 04:21:00,
2013-03-08 23:26:00,32.5,22.8,30.10,NE,56,1.0,3.0,67,0.00,,---,0.00,VWS V14.01,2013-03-09 04:26:00,
2013-03-08 23:31:00,32.5,22.8,30.10,NW,306,3.0,3.0,67,0.00,,---,0.00,VWS V14.01,2013-03-09 04:31:00,
2013-03-08 23:36:00,32.4,22.7,30.10,North,3,0.0,4.0,67,0.00,,---,0.00,VWS V14.01,2013-03-09 04:36:00,
2013-03-08 23:41:00,32.2,23.5,30.10,NE,44,0.0,8.0,70,0.00,,---,0.00,VWS V14.01,2013-03-09 04:41:00,
2013-03-08 23:46:00,32.2,23.5,30.10,NE,37,2.0,8.0,70,0.00,,---,0.00,VWS V14.01,2013-03-09 04:46:00,
2013-03-08 23:51:00,32.2,23.5,30.10,North,356,1.0,8.0,70,0.00,,---,0.00,VWS V14.01,2013-03-09 04:51:00,
2013-03-08 23:56:00,32.2,23.5,30.10,NNE,13,0.0,8.0,70,0.00,,---,0.00,VWS V14.01,2013-03-09 04:56:00,